AFR86QA LFPG-LFBO

Flight info

Callsign AFR86QA
Flight time 1h 3m
Altitude 35000
Route ERIXU DCT ETAMO DCT GUERE DCT NARAK
Aircraft A321/M-SDE3FGHIRWY/LB1

Departure

Time 2026-05-04 17:57
Airport Charles de Gaulle International Airport (LFPG)

Arrival

Time 2026-05-04 19:01
Airport Toulouse-Blagnac Airport (LFBO)
Time Latitude Longitude Altitude Speed Heading
2026-05-04 17:20 49.00717 2.57452 357 ft 0 kts 204°
2026-05-04 17:46 49.00722 2.57455 355 ft 3 kts 204°
2026-05-04 17:46 49.00746 2.57472 361 ft 4 kts 204°
2026-05-04 17:46 49.00766 2.57484 362 ft 4 kts 182°
2026-05-04 17:47 49.00782 2.57475 359 ft 4 kts 97°
2026-05-04 17:47 49.00782 2.57445 357 ft 0 kts 85°
2026-05-04 17:47 49.00782 2.57444 359 ft 0 kts 85°
2026-05-04 17:50 49.00783 2.57465 355 ft 7 kts 85°
2026-05-04 17:50 49.00811 2.57568 361 ft 16 kts 27°
2026-05-04 17:51 49.00872 2.57451 361 ft 18 kts 265°
2026-05-04 17:51 49.00862 2.57267 359 ft 16 kts 261°
2026-05-04 17:51 49.00774 2.57214 360 ft 15 kts 176°
2026-05-04 17:51 49.00688 2.57175 359 ft 14 kts 241°
2026-05-04 17:52 49.00663 2.57034 361 ft 14 kts 255°
2026-05-04 17:52 49.00649 2.56876 354 ft 16 kts 266°
2026-05-04 17:52 49.00641 2.56695 362 ft 18 kts 265°
2026-05-04 17:52 49.00630 2.56494 354 ft 20 kts 265°
2026-05-04 17:53 49.00619 2.56271 354 ft 22 kts 266°
2026-05-04 17:53 49.00599 2.56058 354 ft 20 kts 251°
2026-05-04 17:53 49.00569 2.55861 355 ft 19 kts 264°
2026-05-04 17:53 49.00557 2.55665 356 ft 18 kts 264°
2026-05-04 17:54 49.00549 2.55477 358 ft 17 kts 267°
2026-05-04 17:54 49.00491 2.55340 360 ft 16 kts 200°
2026-05-04 17:54 49.00386 2.55355 354 ft 15 kts 164°
2026-05-04 17:54 49.00289 2.55398 360 ft 14 kts 163°
2026-05-04 17:55 49.00182 2.55447 354 ft 18 kts 162°
2026-05-04 17:55 49.00050 2.55504 356 ft 22 kts 165°
2026-05-04 17:55 48.99898 2.55585 360 ft 23 kts 145°
2026-05-04 17:55 48.99832 2.55759 354 ft 11 kts 108°
2026-05-04 17:56 48.99780 2.55806 359 ft 11 kts 171°
2026-05-04 17:56 48.99693 2.55814 354 ft 15 kts 176°
2026-05-04 17:56 48.99603 2.55878 361 ft 16 kts 92°
2026-05-04 17:56 48.99612 2.56056 361 ft 23 kts 83°
2026-05-04 17:57 48.99643 2.56633 360 ft 89 kts 85°
2026-05-04 17:57 48.99712 2.57876 355 ft 144 kts 85°
2026-05-04 17:57 48.99803 2.59600 489 ft 173 kts 85°
2026-05-04 17:57 48.99898 2.61417 1123 ft 172 kts 85°
2026-05-04 17:58 48.99994 2.63240 1757 ft 173 kts 85°
2026-05-04 17:58 49.00091 2.65086 2228 ft 181 kts 85°
2026-05-04 17:58 49.00200 2.67111 2425 ft 203 kts 85°
2026-05-04 17:58 49.00320 2.69371 2591 ft 225 kts 85°
2026-05-04 17:59 49.00451 2.71887 2782 ft 251 kts 85°
2026-05-04 17:59 49.00590 2.74606 3400 ft 261 kts 85°
2026-05-04 17:59 49.00534 2.80160 4966 ft 268 kts 99°
2026-05-04 18:00 49.00241 2.82980 5774 ft 271 kts 99°
2026-05-04 18:00 48.99931 2.85824 6561 ft 274 kts 99°
2026-05-04 18:00 48.99616 2.88690 7321 ft 277 kts 99°
2026-05-04 18:00 48.99299 2.91602 8061 ft 280 kts 99°
2026-05-04 18:01 48.98982 2.94541 8776 ft 284 kts 99°
2026-05-04 18:01 48.98529 2.97481 9452 ft 287 kts 115°
2026-05-04 18:01 48.97326 2.99893 10099 ft 291 kts 141°
2026-05-04 18:02 48.93472 3.01351 11417 ft 297 kts 193°
2026-05-04 18:02 48.91586 3.00079 11873 ft 309 kts 218°
2026-05-04 18:02 48.90226 2.97522 12030 ft 327 kts 247°
2026-05-04 18:02 48.89572 2.94160 12481 ft 336 kts 255°
2026-05-04 18:03 48.88987 2.90704 13074 ft 339 kts 255°
2026-05-04 18:03 48.88373 2.87157 13712 ft 342 kts 255°
2026-05-04 18:03 48.87759 2.83662 14328 ft 345 kts 255°
2026-05-04 18:03 48.87133 2.80126 14936 ft 348 kts 254°
2026-05-04 18:04 48.86501 2.76572 15523 ft 350 kts 254°
2026-05-04 18:04 48.85862 2.73000 16102 ft 353 kts 254°
2026-05-04 18:04 48.84567 2.65783 17208 ft 358 kts 254°
2026-05-04 18:05 48.83712 2.62232 17735 ft 360 kts 243°
2026-05-04 18:05 48.82410 2.58980 18250 ft 362 kts 234°
2026-05-04 18:05 48.80943 2.55861 18775 ft 364 kts 234°
2026-05-04 18:05 48.79469 2.52720 19280 ft 367 kts 234°
2026-05-04 18:06 48.76493 2.46377 20250 ft 371 kts 234°
2026-05-04 18:06 48.74987 2.43173 20705 ft 374 kts 234°
2026-05-04 18:06 48.73373 2.40125 21143 ft 375 kts 225°
2026-05-04 18:07 48.71377 2.37536 21568 ft 377 kts 214°
2026-05-04 18:07 48.69131 2.35472 21983 ft 379 kts 210°
2026-05-04 18:07 48.66851 2.33447 22370 ft 381 kts 210°
2026-05-04 18:07 48.64602 2.31429 22750 ft 382 kts 210°
2026-05-04 18:08 48.62312 2.29365 23132 ft 384 kts 211°
2026-05-04 18:08 48.60011 2.27289 23494 ft 386 kts 210°
2026-05-04 18:08 48.57699 2.25204 23848 ft 388 kts 210°
2026-05-04 18:08 48.55376 2.23112 24199 ft 390 kts 210°
2026-05-04 18:09 48.50381 2.19956 24873 ft 393 kts 191°
2026-05-04 18:09 48.44915 2.19645 25556 ft 397 kts 177°
2026-05-04 18:10 48.42154 2.19884 25901 ft 398 kts 177°
2026-05-04 18:10 48.39423 2.20113 26247 ft 400 kts 177°
2026-05-04 18:10 48.36641 2.20343 26602 ft 401 kts 177°
2026-05-04 18:10 48.33847 2.20570 26927 ft 403 kts 177°
2026-05-04 18:11 48.31041 2.20793 27261 ft 404 kts 177°
2026-05-04 18:11 48.28231 2.21146 27575 ft 406 kts 172°
2026-05-04 18:11 48.25433 2.21825 27879 ft 408 kts 171°
2026-05-04 18:11 48.22626 2.22509 28178 ft 409 kts 171°
2026-05-04 18:12 48.19808 2.23196 28466 ft 411 kts 171°
2026-05-04 18:12 48.17015 2.23877 28754 ft 413 kts 171°
2026-05-04 18:12 48.14175 2.24567 29036 ft 414 kts 171°
2026-05-04 18:12 48.11330 2.25255 29325 ft 416 kts 171°
2026-05-04 18:13 48.08467 2.25915 29597 ft 417 kts 174°
2026-05-04 18:13 48.05560 2.26169 29765 ft 421 kts 178°
2026-05-04 18:13 47.99639 2.26533 30029 ft 430 kts 178°
2026-05-04 18:14 47.96633 2.26724 30146 ft 434 kts 178°
2026-05-04 18:14 47.93602 2.26913 30272 ft 438 kts 178°
2026-05-04 18:14 47.90594 2.27099 30404 ft 440 kts 178°
2026-05-04 18:15 47.84462 2.27482 30841 ft 441 kts 178°
2026-05-04 18:15 47.78342 2.27881 31347 ft 439 kts 178°
2026-05-04 18:15 47.75290 2.28077 31599 ft 439 kts 178°
2026-05-04 18:16 47.72242 2.28270 31848 ft 438 kts 178°
2026-05-04 18:16 47.69239 2.28458 32090 ft 437 kts 178°
2026-05-04 18:16 47.66180 2.28648 32330 ft 437 kts 178°
2026-05-04 18:17 47.60140 2.29029 32812 ft 436 kts 178°
2026-05-04 18:17 47.57107 2.29217 33056 ft 435 kts 178°
2026-05-04 18:17 47.51066 2.29600 33523 ft 434 kts 178°
2026-05-04 18:18 47.48060 2.29793 33760 ft 433 kts 178°
2026-05-04 18:18 47.45051 2.29981 33983 ft 432 kts 178°
2026-05-04 18:18 47.42047 2.30166 34200 ft 432 kts 178°
2026-05-04 18:18 47.39082 2.30350 34399 ft 432 kts 178°
2026-05-04 18:19 47.33074 2.30729 34772 ft 432 kts 178°
2026-05-04 18:19 47.30066 2.30915 34899 ft 432 kts 178°
2026-05-04 18:19 47.27065 2.31103 34926 ft 431 kts 178°
2026-05-04 18:20 47.21083 2.31478 34923 ft 430 kts 178°
2026-05-04 18:20 47.15114 2.31845 34925 ft 429 kts 179°
2026-05-04 18:21 47.09194 2.32211 34928 ft 429 kts 179°
2026-05-04 18:21 47.03238 2.32573 34924 ft 428 kts 179°
2026-05-04 18:22 46.97287 2.32944 34926 ft 428 kts 179°
2026-05-04 18:22 46.91341 2.33315 34931 ft 428 kts 179°
2026-05-04 18:23 46.85440 2.33589 34931 ft 427 kts 183°
2026-05-04 18:23 46.79631 2.32062 34928 ft 425 kts 195°
2026-05-04 18:24 46.73914 2.29863 34929 ft 425 kts 195°
2026-05-04 18:24 46.68196 2.27660 34931 ft 425 kts 195°
2026-05-04 18:25 46.62482 2.25457 34932 ft 425 kts 195°
2026-05-04 18:25 46.56806 2.23283 34932 ft 424 kts 195°
2026-05-04 18:26 46.51096 2.21109 34933 ft 424 kts 195°
2026-05-04 18:26 46.45406 2.18939 34940 ft 423 kts 195°
2026-05-04 18:27 46.39709 2.16772 34930 ft 423 kts 195°
2026-05-04 18:27 46.34007 2.14608 34930 ft 423 kts 194°
2026-05-04 18:28 46.28350 2.12476 34929 ft 423 kts 194°
2026-05-04 18:28 46.22654 2.10333 34928 ft 423 kts 194°
2026-05-04 18:29 46.16906 2.08559 34926 ft 423 kts 188°
2026-05-04 18:29 46.11067 2.07476 34926 ft 423 kts 188°
2026-05-04 18:30 46.03295 2.06045 34925 ft 423 kts 187°
2026-05-04 18:31 45.96500 2.04787 34925 ft 423 kts 188°
2026-05-04 18:31 45.91654 2.03885 34924 ft 423 kts 188°
2026-05-04 18:32 45.85816 2.02810 34924 ft 423 kts 187°
2026-05-04 18:32 45.79973 2.01741 34924 ft 423 kts 188°
2026-05-04 18:33 45.74130 2.00675 34926 ft 423 kts 187°
2026-05-04 18:33 45.68286 1.99609 34928 ft 423 kts 187°
2026-05-04 18:34 45.62487 1.98549 34929 ft 423 kts 188°
2026-05-04 18:34 45.56641 1.97478 34929 ft 424 kts 188°
2026-05-04 18:35 45.50793 1.96415 34929 ft 424 kts 188°
2026-05-04 18:35 45.44940 1.95357 34929 ft 424 kts 188°
2026-05-04 18:36 45.39127 1.94305 34930 ft 424 kts 188°
2026-05-04 18:36 45.33267 1.93245 34929 ft 424 kts 188°
2026-05-04 18:37 45.27408 1.92201 34927 ft 424 kts 188°
2026-05-04 18:37 45.21542 1.91135 34922 ft 425 kts 188°
2026-05-04 18:38 45.15669 1.90080 34926 ft 425 kts 188°
2026-05-04 18:38 45.09827 1.89047 34930 ft 426 kts 188°
2026-05-04 18:39 45.03906 1.87995 34932 ft 426 kts 188°
2026-05-04 18:39 44.98059 1.86951 34935 ft 426 kts 188°
2026-05-04 18:40 44.92179 1.85905 34934 ft 426 kts 188°
2026-05-04 18:40 44.86288 1.84860 34922 ft 428 kts 188°
2026-05-04 18:40 44.83338 1.84337 34422 ft 427 kts 188°
2026-05-04 18:41 44.80389 1.83814 33669 ft 427 kts 188°
2026-05-04 18:41 44.77442 1.83296 32919 ft 427 kts 188°
2026-05-04 18:41 44.74531 1.82782 32157 ft 427 kts 188°
2026-05-04 18:41 44.71582 1.82261 31356 ft 427 kts 188°
2026-05-04 18:42 44.68630 1.81737 30516 ft 428 kts 188°
2026-05-04 18:42 44.65673 1.81212 29643 ft 429 kts 188°
2026-05-04 18:42 44.62715 1.80690 28729 ft 430 kts 187°
2026-05-04 18:42 44.59735 1.80168 27724 ft 433 kts 187°
2026-05-04 18:43 44.56733 1.79644 26670 ft 437 kts 187°
2026-05-04 18:43 44.53710 1.79117 25729 ft 437 kts 187°
2026-05-04 18:43 44.50704 1.78594 24966 ft 434 kts 187°
2026-05-04 18:43 44.47722 1.78074 24207 ft 430 kts 187°
2026-05-04 18:44 44.44804 1.77562 23453 ft 426 kts 187°
2026-05-04 18:44 44.42820 1.77213 22938 ft 424 kts 187°
2026-05-04 18:44 44.38970 1.76536 21937 ft 418 kts 187°
2026-05-04 18:44 44.36096 1.76033 21193 ft 414 kts 187°
2026-05-04 18:45 44.33251 1.75538 20452 ft 410 kts 188°
2026-05-04 18:45 44.30480 1.74716 19716 ft 405 kts 198°
2026-05-04 18:45 44.27905 1.73201 18966 ft 401 kts 208°
2026-05-04 18:45 44.25564 1.71104 18202 ft 397 kts 214°
2026-05-04 18:46 44.23305 1.68923 17399 ft 394 kts 214°
2026-05-04 18:46 44.21088 1.66791 16629 ft 390 kts 214°
2026-05-04 18:46 44.18861 1.64660 15845 ft 387 kts 213°
2026-05-04 18:46 44.16647 1.62551 15086 ft 384 kts 213°
2026-05-04 18:47 44.14449 1.60463 14359 ft 381 kts 213°
2026-05-04 18:47 44.12269 1.58391 13645 ft 378 kts 214°
2026-05-04 18:47 44.10106 1.56333 12936 ft 375 kts 214°
2026-05-04 18:47 44.07959 1.54291 12231 ft 373 kts 214°
2026-05-04 18:48 44.05826 1.52265 11532 ft 370 kts 214°
2026-05-04 18:48 44.03709 1.50251 10836 ft 368 kts 214°
2026-05-04 18:48 44.01534 1.48410 10203 ft 365 kts 203°
2026-05-04 18:48 43.99117 1.47504 9939 ft 365 kts 186°
2026-05-04 18:49 43.96652 1.47653 9799 ft 348 kts 169°
2026-05-04 18:49 43.94316 1.48291 9661 ft 328 kts 169°
2026-05-04 18:49 43.92164 1.48895 9537 ft 313 kts 168°
2026-05-04 18:49 43.90082 1.49490 9408 ft 298 kts 168°
2026-05-04 18:50 43.88076 1.50063 9282 ft 292 kts 168°
2026-05-04 18:50 43.86091 1.50628 9153 ft 291 kts 168°
2026-05-04 18:50 43.84111 1.51188 9037 ft 290 kts 168°
2026-05-04 18:50 43.82131 1.51748 8907 ft 290 kts 168°
2026-05-04 18:51 43.80155 1.52308 8782 ft 290 kts 168°
2026-05-04 18:51 43.78183 1.52868 8657 ft 289 kts 168°
2026-05-04 18:51 43.76218 1.53425 8531 ft 289 kts 168°
2026-05-04 18:51 43.74265 1.53979 8404 ft 279 kts 168°
2026-05-04 18:52 43.72416 1.54502 8280 ft 266 kts 168°
2026-05-04 18:52 43.70645 1.55000 8091 ft 254 kts 168°
2026-05-04 18:52 43.68927 1.55484 7668 ft 251 kts 168°
2026-05-04 18:52 43.67221 1.55965 7309 ft 249 kts 168°
2026-05-04 18:53 43.65548 1.56434 6976 ft 248 kts 169°
2026-05-04 18:53 43.63863 1.56905 6635 ft 246 kts 169°
2026-05-04 18:53 43.62187 1.57373 6301 ft 245 kts 168°
2026-05-04 18:53 43.60521 1.57841 5968 ft 244 kts 169°
2026-05-04 18:54 43.58865 1.58305 5635 ft 242 kts 169°
2026-05-04 18:54 43.57215 1.58768 5301 ft 242 kts 168°
2026-05-04 18:54 43.55572 1.59230 4986 ft 240 kts 168°
2026-05-04 18:54 43.53938 1.59691 4664 ft 239 kts 168°
2026-05-04 18:55 43.52350 1.60135 4551 ft 226 kts 168°
2026-05-04 18:55 43.49469 1.59883 4285 ft 201 kts 207°
2026-05-04 18:55 43.48366 1.58787 4189 ft 193 kts 227°
2026-05-04 18:56 43.47614 1.57265 4187 ft 193 kts 247°
2026-05-04 18:56 43.47274 1.55488 4150 ft 193 kts 266°
2026-05-04 18:56 43.47385 1.53663 4045 ft 192 kts 286°
2026-05-04 18:56 43.47936 1.52008 3874 ft 190 kts 306°
2026-05-04 18:57 43.48863 1.50726 3660 ft 189 kts 324°
2026-05-04 18:57 43.49916 1.49639 3418 ft 189 kts 323°
2026-05-04 18:57 43.50948 1.48571 3183 ft 188 kts 323°
2026-05-04 18:57 43.51990 1.47492 2937 ft 187 kts 323°
2026-05-04 18:58 43.53027 1.46418 2680 ft 185 kts 323°
2026-05-04 18:58 43.54053 1.45355 2429 ft 183 kts 323°
2026-05-04 18:58 43.55032 1.44341 2211 ft 168 kts 322°
2026-05-04 18:58 43.55932 1.43408 1980 ft 158 kts 322°
2026-05-04 18:59 43.56803 1.42503 1776 ft 154 kts 322°
2026-05-04 18:59 43.57655 1.41619 1569 ft 152 kts 322°
2026-05-04 18:59 43.58490 1.40753 1367 ft 146 kts 321°
2026-05-04 18:59 43.59285 1.39927 1170 ft 141 kts 322°
2026-05-04 19:00 43.60053 1.39130 986 ft 140 kts 322°
2026-05-04 19:00 43.60826 1.38325 804 ft 138 kts 319°
2026-05-04 19:00 43.61587 1.37531 616 ft 137 kts 321°
2026-05-04 19:00 43.62340 1.36752 487 ft 129 kts 322°
2026-05-04 19:01 43.62871 1.36195 489 ft 65 kts 323°
2026-05-04 19:01 43.63189 1.35862 490 ft 54 kts 323°
2026-05-04 19:01 43.63445 1.35598 491 ft 31 kts 323°
2026-05-04 19:01 43.63557 1.35493 489 ft 15 kts 349°
2026-05-04 19:02 43.63601 1.35545 492 ft 5 kts 60°
2026-05-04 19:02 43.63648 1.35630 491 ft 17 kts 53°
2026-05-04 19:02 43.63713 1.35746 487 ft 14 kts 52°
2026-05-04 19:02 43.63771 1.35850 487 ft 13 kts 52°
2026-05-04 19:03 43.63819 1.35953 491 ft 14 kts 80°
2026-05-04 19:03 43.63736 1.36074 494 ft 20 kts 142°
2026-05-04 19:03 43.63632 1.36185 489 ft 19 kts 143°
2026-05-04 19:03 43.63532 1.36289 488 ft 17 kts 143°
2026-05-04 19:04 43.63438 1.36386 483 ft 16 kts 143°
2026-05-04 19:04 43.63351 1.36475 486 ft 15 kts 143°
2026-05-04 19:04 43.63271 1.36557 485 ft 14 kts 143°
2026-05-04 19:04 43.63183 1.36650 494 ft 20 kts 142°
2026-05-04 19:05 43.63069 1.36769 492 ft 20 kts 143°
2026-05-04 19:05 43.62962 1.36879 486 ft 18 kts 143°
2026-05-04 19:05 43.62863 1.36980 491 ft 17 kts 143°
2026-05-04 19:05 43.62849 1.37096 485 ft 13 kts 54°
2026-05-04 19:06 43.62901 1.37192 486 ft 11 kts 57°
2026-05-04 19:06 43.62881 1.37272 489 ft 9 kts 141°
2026-05-04 19:06 43.62833 1.37329 488 ft 11 kts 123°
2026-05-04 19:06 43.62853 1.37388 497 ft 6 kts 43°
2026-05-04 19:07 43.62870 1.37412 496 ft 0 kts 46°